Theta_e
324 316 308 308 299 297 292 295 300 302 303 309 314 313 311 312 309 303 329 334 337 338 341 342 346 347 347 347 348 348 348 348 347 345 343 342 340 339 338 338 338 338 338 340 340 341 340 338 336
316 314 310 301 294 289 292 297 300 302 310 316 314 315 313 308 321 326 328 335 337 338 339 339 343 347 346 346 347 347 348 348 347 345 343 341 339 338 338 338 337 337 338 339 339 339 339 337 336
312 310 305 298 291 289 293 298 301 304 310 306 313 317 314 315 324 327 330 335 334 334 337 338 342 346 346 347 346 347 347 347 346 344 342 340 339 338 338 337 337 337 338 338 338 338 338 337 335
309 308 303 296 292 294 297 302 305 305 305 313 313 310 316 322 325 329 333 332 331 333 335 339 342 344 345 346 346 346 345 347 346 345 343 340 339 337 337 337 336 337 337 338 337 337 337 336 335
309 303 298 295 294 296 299 305 305 303 303 307 311 307 310 321 330 331 330 331 329 331 334 336 339 341 342 345 345 345 345 344 345 345 344 342 339 338 337 336 335 335 335 336 335 335 335 335 334
308 301 294 293 296 298 303 305 305 301 308 310 312 311 312 324 327 328 329 327 331 332 333 334 333 336 339 340 341 342 342 342 342 342 343 343 340 338 337 336 335 334 333 333 333 334 334 334 333
306 299 294 297 296 296 303 306 302 304 309 309 316 309 312 319 325 328 326 328 330 331 331 330 330 331 332 334 336 338 339 340 340 340 341 341 340 339 338 336 335 334 332 332 332 333 333 332 332
310 302 300 298 292 294 300 303 305 304 304 317 319 310 312 319 326 326 326 327 328 329 329 327 328 328 328 329 330 333 335 335 335 334 332 331 333 334 334 332 335 333 332 331 331 331 331 330 331
312 301 300 301 296 296 301 301 303 307 310 310 314 316 319 323 325 323 323 323 326 327 326 326 326 325 326 327 326 328 329 329 328 327 324 324 326 328 328 329 332 333 333 331 330 329 328 326 325
307 298 301 308 305 298 300 300 304 305 306 308 311 318 321 324 324 321 320 319 321 323 326 326 325 324 324 328 324 324 325 323 322 322 321 322 323 324 326 323 327 329 329 331 330 327 326 322 318
309 302 309 310 311 310 301 300 301 303 300 307 312 316 318 320 322 321 321 322 320 322 325 326 325 325 325 324 323 322 321 321 320 320 321 321 321 320 321 320 319 318 317 317 318 318 317 317 316
305 310 312 314 315 309 300 299 300 303 302 306 316 321 319 317 320 321 321 321 321 320 322 326 325 326 324 323 322 321 320 319 318 319 321 319 318 317 317 318 317 316 315 314 314 314 315 315 316
306 308 310 315 315 312 304 300 299 300 300 309 319 321 320 318 318 321 323 323 322 320 321 324 324 325 325 323 322 321 320 320 319 320 321 320 318 317 317 318 318 316 317 316 314 313 313 313 314
308 308 308 309 313 306 301 300 297 298 309 315 318 317 320 319 318 317 318 322 322 323 322 324 324 325 325 325 323 323 321 322 320 320 321 320 319 318 317 317 318 317 317 316 314 312 312 313 312
307 304 306 307 306 302 301 299 296 298 309 314 315 317 318 320 319 319 320 321 323 325 325 324 325 326 325 324 324 323 323 323 322 322 322 321 319 318 317 316 315 316 316 315 313 312 312 312 313
301 300 296 305 302 302 301 300 303 300 305 309 313 314 317 318 320 321 322 322 323 324 324 326 327 326 325 323 324 324 324 324 323 323 323 323 322 321 318 316 315 315 313 312 312 313 313 312 312
296 290 292 298 304 301 297 297 304 305 299 303 309 313 316 318 319 321 323 323 322 323 324 325 326 325 325 324 324 324 324 324 324 321 321 322 323 323 320 318 316 316 313 312 314 314 314 313 313
288 291 294 294 300 296 295 296 302 304 299 297 302 309 313 317 319 322 323 324 323 323 323 325 326 325 326 326 324 322 322 323 323 324 323 322 323 324 322 319 318 317 314 313 313 314 314 314 314
296 294 294 298 302 297 295 297 300 302 299 299 297 296 304 312 319 321 323 324 323 322 322 322 323 323 326 326 324 323 323 324 323 324 324 323 323 323 322 321 319 318 316 315 315 314 315 313 315
296 295 295 298 301 297 295 295 298 297 300 300 299 299 299 299 307 314 320 322 323 322 322 323 322 323 324 327 327 325 324 322 324 324 323 324 323 323 323 322 321 320 318 315 315 315 315 314 310
296 294 294 296 294 294 292 293 295 297 300 301 300 302 303 301 301 303 314 320 322 322 322 322 323 323 324 325 325 319 319 317 318 320 323 323 324 325 324 323 323 321 320 319 317 316 315 312 309
294 298 298 297 293 290 293 288 291 294 297 298 301 303 304 303 300 302 305 315 320 322 323 323 322 322 322 324 323 322 322 320 322 323 323 323 323 324 324 325 324 323 321 319 318 316 318 314 310
296 301 299 299 295 294 291 287 290 290 291 294 298 300 303 304 305 302 303 311 317 321 322 322 322 321 322 322 323 322 321 322 322 320 320 322 322 323 323 324 324 323 323 321 319 314 315 316 315
301 299 298 296 295 287 291 290 290 292 293 295 298 298 302 303 303 304 303 308 313 317 320 321 321 320 321 321 322 321 321 321 317 319 320 320 321 322 322 323 323 323 323 321 320 319 317 316 316
300 295 286 285 283 284 289 287 293 293 294 297 298 296 295 298 299 302 299 302 309 312 316 319 320 320 321 320 321 321 321 321 320 319 319 319 319 320 321 321 322 323 323 323 322 319 318 317 316
297 296 287 281 282 284 284 285 291 297 301 297 295 294 294 295 297 296 298 298 302 309 314 317 318 320 320 320 320 321 321 321 321 320 321 320 321 322 321 321 322 322 323 322 321 321 320 319 319
296 292 295 282 272 278 280 283 290 292 292 294 294 293 292 293 295 297 296 297 296 299 309 315 316 319 320 321 321 321 321 321 321 321 321 322 321 322 321 322 321 322 322 322 322 323 322 321 320
298 301 289 286 278 274 279 280 288 291 293 292 291 295 293 291 291 292 292 292 295 295 301 309 313 315 315 318 320 321 322 322 322 320 321 322 323 321 321 322 322 322 322 322 322 323 323 322 321
293 294 291 291 283 279 275 281 286 294 293 292 294 296 294 292 291 292 292 292 294 294 296 302 307 309 310 312 313 315 316 318 320 322 322 322 322 321 322 324 324 324 324 324 323 322 322 319 319
298 295 295 287 281 279 280 286 287 290 290 294 296 293 292 291 291 291 293 293 294 295 295 295 296 301 303 304 306 308 309 311 313 315 317 320 322 322 324 324 322 322 321 320 318 317 314 315 314
Wind_Speed
8 8 1 6 5 5 1 3 1 4 2 3 3 2 6 3 3 4 2 4 10 5 5 6 8 10 10 10 11 12 14 16 17 18 17 17 17 16 17 16 15 15 16 16 17 18 18 18 18
5 4 4 3 6 3 4 2 5 1 6 8 6 3 6 2 2 6 6 4 6 7 6 6 8 9 11 10 10 12 13 15 16 17 16 16 16 16 16 15 15 15 14 17 16 16 16 17 17
6 4 4 5 4 3 4 3 5 2 6 1 5 4 3 3 3 8 5 8 7 6 6 6 9 9 11 10 11 12 12 13 14 15 16 16 16 15 15 15 14 15 15 15 16 15 16 18 17
6 5 5 4 2 4 4 7 6 7 3 3 4 6 2 2 7 7 9 10 8 6 6 7 10 11 10 10 13 14 13 13 12 14 14 16 16 16 14 14 14 13 14 14 15 16 16 15 15
4 3 3 2 3 3 2 6 6 4 3 2 2 4 1 2 7 13 10 9 9 6 5 5 10 10 10 9 12 15 15 12 11 11 11 15 15 15 14 14 13 13 13 13 14 15 14 13 15
4 3 4 2 3 3 2 4 6 3 2 4 6 4 2 3 11 7 8 8 8 7 5 4 7 9 10 10 9 12 13 11 9 8 9 14 16 15 14 13 12 12 12 12 12 14 15 14 14
3 3 3 2 2 1 4 6 4 6 6 4 9 5 1 4 5 8 7 6 9 6 6 4 4 6 8 8 11 11 11 8 7 7 9 11 12 12 12 11 10 10 10 11 11 12 13 13 11
3 3 2 1 2 3 1 3 4 4 2 3 4 6 5 6 8 8 7 6 6 7 5 5 4 3 5 6 9 9 11 9 7 8 9 10 10 10 9 8 8 8 8 9 9 10 11 11 8
4 2 2 4 5 1 5 2 1 1 6 0 1 6 5 15 11 8 7 5 4 4 5 5 4 3 4 5 6 7 9 8 9 7 9 7 5 5 6 6 7 6 6 7 8 8 8 8 8
4 1 5 2 4 3 3 3 7 4 3 1 0 2 13 16 15 13 10 10 10 10 7 5 5 4 3 2 3 4 4 3 4 4 5 4 5 4 4 5 6 5 5 5 5 4 5 5 3
5 4 3 4 2 2 1 1 1 8 4 7 9 10 13 13 13 13 9 10 13 10 8 9 8 7 6 5 3 2 2 3 3 5 4 4 4 3 3 2 2 1 3 2 3 3 2 1 2
8 7 5 5 4 3 0 2 3 6 5 4 10 20 15 15 15 16 16 14 12 10 11 11 9 9 6 3 3 4 3 3 3 3 4 3 2 3 2 2 3 3 2 2 0 0 1 1 1
4 7 9 7 7 7 5 4 4 6 2 3 11 13 17 15 14 11 10 9 9 11 10 10 10 9 8 7 4 4 4 4 4 4 4 4 4 4 4 3 3 2 2 1 1 1 1 2 3
7 8 5 7 7 6 4 4 2 3 5 7 12 14 15 16 18 8 9 12 13 12 12 11 12 11 10 9 8 6 4 4 4 4 5 6 4 3 3 3 2 2 2 2 2 3 3 2 1
5 6 1 4 4 5 5 6 9 4 5 9 10 11 13 13 9 16 16 15 15 12 12 13 12 11 11 10 9 6 6 5 5 5 6 6 6 5 5 4 4 4 3 4 3 3 2 2 1
5 1 5 4 4 6 6 12 8 8 9 10 9 9 12 12 17 12 12 12 12 11 13 12 12 12 11 9 8 6 6 6 5 5 5 7 6 6 5 4 4 4 4 4 3 3 2 3 3
4 5 4 3 8 4 7 6 9 5 10 10 10 10 11 12 11 11 13 13 12 13 12 13 13 13 12 8 6 6 7 6 5 4 4 6 7 7 6 5 4 5 4 4 3 3 3 2 3
7 9 5 8 9 6 7 13 8 3 8 11 11 11 12 13 19 18 17 12 11 12 11 13 12 13 13 8 5 3 3 4 4 6 7 7 7 7 6 4 5 5 4 4 3 5 3 3 4
8 6 13 9 6 5 13 17 13 13 4 8 9 8 11 15 19 12 12 13 11 12 13 14 15 13 11 8 8 6 8 6 4 5 6 7 6 6 6 4 4 4 6 6 6 3 5 3 1
9 14 14 4 6 6 6 16 13 8 10 10 10 11 13 10 12 9 12 12 16 16 17 16 17 15 14 10 9 5 5 4 4 5 6 7 7 7 7 8 8 8 6 6 5 5 2 2 3
16 19 12 7 2 1 2 15 12 8 16 9 9 11 11 15 16 13 12 15 16 17 17 17 17 15 14 14 7 3 3 1 4 5 7 8 10 10 10 10 9 8 7 7 7 7 6 4 3
21 10 8 10 7 7 7 9 7 7 18 12 18 17 17 14 11 14 14 14 16 18 16 16 15 15 14 15 12 14 11 11 9 8 7 7 11 12 12 12 11 10 7 7 8 7 8 5 6
15 6 7 8 9 3 5 5 7 3 9 9 17 17 17 17 17 17 14 16 14 17 15 16 14 14 15 16 16 12 13 10 6 4 7 10 9 12 11 12 11 10 8 9 9 7 8 7 6
4 8 3 4 3 8 16 12 9 9 10 8 13 13 18 17 14 12 12 10 10 12 12 12 14 15 14 16 17 17 17 13 7 8 8 7 7 7 11 10 10 10 10 10 9 10 9 9 9
13 14 4 7 5 8 9 9 17 6 10 12 13 10 10 10 10 14 11 10 9 10 12 12 15 16 15 17 17 18 18 14 15 12 9 8 7 7 9 9 10 9 10 10 9 9 11 10 10
28 20 8 7 10 8 3 13 9 12 14 10 11 9 7 10 9 10 11 10 11 11 12 14 14 15 14 16 18 16 14 10 10 10 8 8 8 8 7 9 10 11 11 10 10 9 9 9 10
21 18 9 6 2 4 6 9 8 11 11 9 9 7 7 8 7 9 9 9 8 8 10 13 13 14 13 15 13 12 11 12 11 9 8 8 7 6 7 10 11 11 11 11 11 10 11 11 12
14 24 13 3 6 5 5 7 13 11 18 11 10 15 10 8 7 7 6 6 4 6 7 7 8 10 8 9 8 8 10 10 11 7 11 10 9 8 8 9 10 11 12 13 13 12 13 13 10
6 18 5 4 5 6 3 11 7 17 10 13 16 17 12 10 9 7 5 6 5 3 4 6 6 7 7 7 7 7 6 7 7 9 9 10 9 8 10 12 12 12 13 12 11 13 10 10 11
27 17 25 14 8 4 1 15 4 9 7 13 12 8 6 7 9 8 6 6 6 5 4 5 5 6 6 5 5 6 5 4 5 5 5 6 9 9 12 10 9 8 7 7 6 7 6 8 9
Wind_Direction
330 322 58 43 50 63 168 241 295 137 79 324 77 134 147 56 143 202 342 131 127 129 118 110 112 118 116 117 124 125 119 117 114 109 106 106 102 99 95 95 94 93 99 101 93 82 78 87 85
328 341 41 81 82 57 269 265 166 204 144 126 83 86 48 86 97 126 115 140 116 124 114 114 118 116 122 119 122 120 116 114 115 112 111 107 104 97 94 95 96 98 101 98 91 78 79 92 85
4 46 69 85 106 172 199 212 167 93 154 123 104 60 119 148 137 148 142 133 112 110 113 125 124 115 117 128 129 119 117 112 118 116 115 110 104 99 98 95 98 101 103 101 93 80 86 93 90
7 3 32 82 221 244 201 180 177 140 169 55 122 70 41 196 169 158 135 126 116 118 118 132 127 125 112 111 128 114 108 109 112 123 119 121 117 110 104 100 97 96 100 101 90 81 87 97 92
27 51 44 23 280 263 241 159 164 124 121 94 74 169 94 20 127 133 132 134 128 124 126 128 124 118 110 118 123 116 109 102 110 115 119 128 123 115 110 104 103 104 107 107 99 92 93 99 96
10 88 53 233 280 348 75 149 147 109 138 159 84 108 165 120 132 151 135 137 123 133 124 119 123 119 118 121 118 100 105 105 106 106 110 127 127 122 116 110 105 101 102 105 101 95 92 100 101
39 60 227 222 284 101 189 145 180 155 151 212 152 103 52 160 148 134 123 122 120 106 111 108 104 116 105 108 107 111 108 113 106 86 97 109 119 118 116 113 111 106 103 101 98 92 88 91 106
71 75 269 272 204 232 137 136 130 137 176 86 148 169 187 190 141 116 118 113 110 119 119 123 116 104 113 120 125 121 120 120 118 109 100 93 92 97 104 93 104 108 101 95 85 76 76 74 94
39 28 234 219 172 212 315 131 36 53 117 33 164 157 191 135 127 115 122 109 114 128 137 131 131 129 132 130 135 126 132 140 132 117 107 93 103 107 107 115 113 117 107 97 85 74 58 56 50
43 162 239 240 173 158 287 193 162 127 136 277 310 28 131 144 154 154 167 168 165 171 171 157 148 141 121 103 125 127 127 126 128 123 118 111 116 109 107 110 122 115 103 101 91 65 43 46 74
104 241 338 296 265 166 260 268 199 127 226 208 189 159 150 157 168 164 174 184 180 182 174 177 164 161 172 160 158 148 154 149 148 156 143 128 118 133 124 130 96 79 67 35 31 26 54 89 122
112 264 271 302 320 289 324 265 235 191 221 230 180 166 154 172 180 181 177 183 186 181 188 177 181 173 165 151 168 164 162 171 160 172 154 140 138 152 167 176 182 176 177 178 115 321 256 251 248
207 196 285 299 293 285 308 273 234 234 264 105 129 165 174 181 187 193 186 185 175 186 191 186 175 179 171 168 176 178 179 172 188 179 193 171 180 187 177 199 197 211 172 202 224 264 293 301 302
207 155 211 296 304 289 257 271 143 283 128 129 156 180 186 189 192 172 179 189 187 189 189 182 188 184 177 181 182 183 184 190 185 195 194 193 183 187 189 189 226 249 225 224 215 219 223 241 261
150 152 227 225 249 247 209 266 221 193 150 166 185 191 194 206 192 203 194 193 191 196 185 185 192 188 185 189 186 183 191 190 191 197 196 191 186 192 195 194 205 217 220 217 214 246 257 242 230
151 186 183 191 166 233 158 258 251 185 161 205 205 200 204 209 214 209 205 202 194 188 191 188 187 192 190 192 190 189 189 193 202 201 196 198 197 188 189 199 212 207 202 198 202 199 228 253 242
237 215 205 267 178 205 199 248 237 175 180 212 210 208 213 224 226 216 215 201 191 192 185 188 189 189 192 189 190 195 189 191 193 184 198 205 199 196 193 200 209 201 202 202 199 220 203 222 248
187 209 193 203 189 180 215 249 263 254 191 218 218 214 212 221 227 217 213 206 195 194 184 190 190 192 189 186 182 186 189 190 191 205 206 199 211 202 197 204 207 189 193 216 211 215 219 229 243
168 221 215 218 222 157 216 247 240 253 222 240 234 230 222 220 233 226 216 208 201 193 190 192 191 190 181 184 189 202 214 212 207 211 210 202 205 201 195 202 212 196 202 210 204 194 206 251 264
188 211 218 222 170 151 252 261 249 228 238 213 214 229 231 234 233 215 206 200 205 199 204 199 200 192 194 193 198 196 186 209 214 203 205 206 199 195 196 197 208 204 206 207 199 188 200 230 182
212 208 202 203 129 34 13 270 254 241 245 238 231 223 226 221 228 223 205 201 201 209 203 204 206 199 196 192 178 128 121 155 183 206 211 208 204 209 208 207 213 211 205 211 207 201 191 212 226
217 183 193 195 141 221 169 269 239 230 244 216 234 236 237 229 221 218 211 204 200 210 209 205 199 197 195 189 190 200 206 211 217 209 204 204 203 212 213 216 214 215 207 208 206 198 210 179 219
234 147 168 194 192 146 206 257 255 185 252 233 236 236 233 225 220 213 206 204 204 206 199 202 195 192 193 192 197 200 213 218 209 195 191 202 208 216 214 215 216 217 212 215 206 191 203 204 216
132 136 78 61 205 221 209 209 222 210 209 226 238 233 231 227 224 221 205 194 203 204 198 190 187 198 192 194 200 200 210 209 197 201 207 207 211 214 218 215 216 218 218 213 211 213 210 212 222
177 160 184 196 210 230 192 210 243 209 221 218 224 242 231 221 215 224 196 187 192 187 190 186 189 199 194 195 200 206 211 204 211 204 209 204 206 215 219 205 211 219 221 218 213 210 217 211 219
193 190 173 192 194 209 84 233 242 225 231 224 224 234 269 230 220 211 210 194 197 196 190 189 192 201 193 196 205 209 210 211 216 209 207 213 214 218 199 201 213 220 218 214 209 217 223 220 227
192 200 181 89 23 82 205 282 287 253 262 248 233 232 238 248 223 218 210 203 207 205 197 191 190 203 198 201 205 206 207 209 214 211 199 211 211 205 198 201 209 220 220 219 216 227 230 221 231
183 189 193 180 158 231 242 278 235 211 220 232 215 223 219 217 228 212 183 169 197 214 200 192 192 195 192 193 195 201 203 206 214 194 209 210 213 201 200 208 211 215 218 218 218 230 231 230 228
171 196 177 162 166 206 238 251 204 223 224 225 224 211 202 197 206 210 183 153 150 126 169 184 181 175 178 180 180 185 190 194 192 207 210 210 208 201 211 218 219 220 221 225 224 230 234 227 236
199 192 193 194 201 225 240 252 150 246 283 247 228 189 189 199 190 187 173 156 151 150 140 153 160 177 193 189 185 199 194 194 208 218 219 203 213 210 221 226 228 228 226 224 223 223 220 222 229